Location: Unspecified
(0.0000°N, 0.0000°E)
Time: 20:19:40
(UTC+00:00)

CHEOPS - Pass Details

Date: 11 June 2023
Orbit: 695 x 708 km, 98.2° (Epoch: 01 October)

Event Time Altitude Azimuth Distance (km) Brightness Sun altitude
Rises 18:40:37 0° 349° (N) 3,088 ? -9.4°
Reaches altitude 10° 18:43:13 10° 336° (NNW) 2,171 ? -10.0°
Maximum altitude 18:47:03 24° 282° (WNW) 1,426 ? -10.9°
Drops below altitude 10° 18:50:53 10° 228° (SW) 2,173 ? -11.8°
Sets 18:53:30 0° 215° (SW) 3,091 ? -12.4°
